This is the latest recevied weather packets stored in our database for station/object K1RFS. If no packets are shown the sender has not sent any weather packets the latest 10 day(s).
| Time | Temp. | Humidity | Pressure | Rain* | Wind** | Luminosity | Snow |
|---|---|---|---|---|---|---|---|
| 1787932491 | 25° C | 40% | 1005.2 hPa | 0 mm | - | 96 W/m² | - |
| 1787932186 | 25° C | 40% | 1005.4 hPa | 0 mm | - | 92 W/m² | - |
| 1787931884 | 25° C | 41% | 1005 hPa | 0 mm | - | 98 W/m² | - |
| 1787931579 | 25° C | 42% | 1005.2 hPa | 0 mm | - | 90 W/m² | - |
| 1787931274 | 25° C | 41% | 1005.7 hPa | 0 mm | - | 73 W/m² | - |
| 1787930973 | 25° C | 41% | 1006.1 hPa | 0 mm | - | 75 W/m² | - |
| 1787930673 | 25° C | 40% | 1005.8 hPa | 0 mm | - | 57 W/m² | - |
| 1787930368 | 24.44° C | 43% | 1005.7 hPa | 0 mm | - | 47 W/m² | - |
| 1787930063 | 24.44° C | 45% | 1005.6 hPa | 0 mm | - | 49 W/m² | - |
| 1787929761 | 24.44° C | 44% | 1005.5 hPa | 0 mm | - | 55 W/m² | - |
| 1787929456 | 24.44° C | 44% | 1005.7 hPa | 0 mm | - | 52 W/m² | - |
| 1787929154 | 23.89° C | 42% | 1005.5 hPa | 0 mm | - | 56 W/m² | - |
| 1787928849 | 23.89° C | 44% | 1005.7 hPa | 0 mm | - | 63 W/m² | - |
| 1787928549 | 23.89° C | 45% | 1005.7 hPa | 0 mm | - | 53 W/m² | - |
| 1787928248 | 23.89° C | 45% | 1005.5 hPa | 0 mm | - | 59 W/m² | - |
| 1787927946 | 23.33° C | 48% | 1005.3 hPa | 0 mm | - | 49 W/m² | - |
| 1787927641 | 22.78° C | 52% | 1005.4 hPa | 0 mm | - | 61 W/m² | - |
| 1787927341 | 22.78° C | 53% | 1005.5 hPa | 0 mm | - | 64 W/m² | - |
| 1787927037 | 22.78° C | 53% | 1005.4 hPa | 0 mm | - | 59 W/m² | - |
| 1787926732 | 22.22° C | 54% | 1005.5 hPa | 0 mm | - | 52 W/m² | - |
| 1787926430 | 22.22° C | 54% | 1005.3 hPa | 0 mm | - | 43 W/m² | - |
| 1787926125 | 22.22° C | 55% | 1005.3 hPa | 0 mm | - | 41 W/m² | - |
| 1787925824 | 21.67° C | 55% | 1005.6 hPa | 0 mm | - | 39 W/m² | - |
| 1787925524 | 21.67° C | 56% | 1005.2 hPa | 0 mm | - | 30 W/m² | - |
| 1787925219 | 21.67° C | 55% | 1005.3 hPa | 0 mm | - | 27 W/m² | - |
* Rain latest hour (hover to see other rain measurements)
** Current wind speed in m/s (hover to see current wind gust speed)